Retour au catalogue

STARLINK-34056

ActifCommunicationsVLEO
NORAD 63841·PAYLOAD·🇺🇸 United States

Lancé May 7, 2025 depuis Cape Canaveral Space Force Station

Loading…

Prochains Passages (prochaines 24 heures)

TLE

FraisSource: CelesTrak SupGP

Époque: Sep 15, 2026, 02:48 UTC

1 63841C 25093F   26258.11715278  .00012008  00000+0  43577-3 0  2583
2 63841  43.0009  88.3287 0001717 260.4972 334.8763 15.27508017    13

Suivez STARLINK-34056 en temps réel avec AllMySat

Download on the App Store